Regional Weather Roundup
Issued by NWS

Home | Current Version | Previous Version | Text Only | Print | Product List | Glossary On
Versions: 1 2 3 4 5 6 7 8 9 10 11 12 13 14 15 16 17 18 19 20 21 22 23 24 25 26 27 28 29 30 31 32 33 34 35 36 37 38 39 40 41 42 43 44 45 46 47 48 49 50
000
ASUS46 KLOX 031204
RWRCA

SOUTHERN CALIFORNIA WEATHER ROUNDUP
NATIONAL WEATHER SERVICE OXNARD CALIFORNIA
500 AM PDT TUE AUG 03 2021

NOTE: "FAIR" INDICATES FEW OR NO CLOUDS BELOW 12,000 FEET WITH NO
SIGNIFICANT WEATHER AND/OR OBSTRUCTIONS TO VISIBILITY.

  -  STATIONS PRECEEDED BY AN ASTERISK (*) ARE NOT NWS OR FAA
     STATIONS AND ARE NOT SUBJECT TO NWS AND FAA QUALITY CONTROL.

CAZ041-042-087-031300-
LA AND ORANGE COUNTY COASTAL AREAS


CITY           SKY/WX    TMP DP  RH WIND       PRES   REMARKS
L.A. DOWNTOWN  CLEAR     66  58  75 CALM      29.95R
L.A. AIRPORT   CLEAR     63  59  87 VRB3      29.96R
LONG BEACH     CLEAR     65  58  78 CALM      29.96R

CITY           SKY/WX    TMP DP  RH WIND       PRES   REMARKS
AVALON           N/A     59 N/A N/A MISG        N/A
FULLERTON      CLEAR     67  60  78 CALM      29.95R
HAWTHORNE      CLEAR     65  58  78 W5        29.96R
*LOS ALAMITOS  FAIR      61  61 100 CALM      29.96R
SANTA ANA      CLEAR     66  60  81 S5        29.96R
STA MONICA APT CLEAR     62  59  90 CALM      29.96R
*UCLA            N/A     63  57  82 CALM      29.93R

$$

CAZ547-548-048-031300-
LA COUNTY VALLEYS AND INLAND EMPIRE


CITY           SKY/WX    TMP DP  RH WIND       PRES   REMARKS
BURBANK        CLEAR     70  53  54 CALM      29.96R
VAN NUYS       CLEAR     72  49  44 CALM      29.96R

CITY           SKY/WX    TMP DP  RH WIND       PRES   REMARKS
CORONA AIRPORT SUNNY     62  49  62 CALM      29.97R
CHINO          CLEAR     67  50  54 CALM      29.98R
*CLAREMONT       N/A     68  38  33 CALM        N/A
MARCH AFB      CLEAR     64  35  33 CALM      29.99R
*NORTHRIDGE      N/A     66  48  52 CALM        N/A
ONTARIO        CLEAR     74  47  38 CALM      29.97R
RIVERSIDE      CLEAR     70  44  39 CALM      29.97R
SAN BERNARDINO FAIR      72  38  29 CALM      29.98
*WHITEMAN AP   NOT AVBL
*WHITTIER HILL   N/A     67  52  57 SE6         N/A
*WOODLAND HILL   N/A     63  45  51 MISG        N/A

$$

CAZ054-055-031300-
LA AND SAN BERNARDINO COUNTY MOUNTAINS


CITY           SKY/WX    TMP DP  RH WIND       PRES   REMARKS
*ACTON           N/A     63  25  23 NE5         N/A
*BIG BEAR AIRP SUNNY     46  37  71 CALM      30.39S
*BIG PINES       N/A     67  30  25 CALM        N/A
SANDBERG       CLEAR     80  28  15 W6        30.19S

$$

CAZ028-029-059-060-099-031300-
ANTELOPE VALLEY AND SURROUNDING AREAS


CITY           SKY/WX    TMP DP  RH WIND       PRES   REMARKS
LANCASTER      CLEAR     70  33  25 NE3       30.04R
PALMDALE       CLEAR     68  26  20 CALM      30.05S
*POPPY PARK      N/A     76  28  17 W5          N/A

CITY           SKY/WX    TMP DP  RH WIND       PRES   REMARKS
29 PALMS       CLEAR     84  29  13 W10       30.05R
BARSTOW/DAGGET CLEAR     80  31  16 W12       30.00R
BISHOP         CLEAR     66  36  32 NW8       30.17R
CHINA LAKE     CLEAR     81  39  22 SW8       30.01R
EDWARDS AFB    CLEAR     71  32  24 SW8       30.01R
MOJAVE           N/A     75  37  25 CALM      30.06R
NEEDLES        CLEAR     92  50  23 S3        29.86R

$$

CAZ039-040-031300-
VENTURA AND SANTA BARBARA COUNTY COAST


CITY           SKY/WX    TMP DP  RH WIND       PRES   REMARKS
CAMARILLO      CLEAR     60  53  77 CALM      29.96R
NWS OXNARD       N/A     60  50  70 SW1       29.94R
OXNARD AIRPORT CLEAR     59  56  89 W3        29.97R
*POINT MUGU    CLEAR     57  54  89 N5        29.97R
SBA APT/GOLETA CLEAR     60  55  83 N5        29.95R
*VENTURA         N/A     57  55  94 MISG        N/A

$$

CAZ044-045-031300-
VENTURA COUNTY VALLEYS


CITY           SKY/WX    TMP DP  RH WIND       PRES   REMARKS
*SIMI VALLEY     N/A     63  45  51 CALM      29.88S
*TO CIVIC ARTS   N/A     61  46  59 SW1         N/A
*OJAI            N/A     89  54  29 CALM      29.85R
*FILLMORE        N/A     55  51  88 CALM      30.00R

$$

CAZ053-031300-
VENTURA COUNTY MOUNTAINS


CITY           SKY/WX    TMP DP  RH WIND       PRES   REMARKS
*LOCKWOOD VLY    N/A     50  23  34 NW5G10      N/A
*ROSE VALLEY     N/A     50  27  40 E1          N/A

$$

CAZ034-035-036-031300-
CENTRAL COAST AND SANTA YNEZ VALLEY


CITY           SKY/WX    TMP DP  RH WIND       PRES   REMARKS
SAN LUIS OBISP CLOUDY    58  55  90 NW9       30.01R
SANTA MARIA    CLOUDY    56  54  93 NW5       30.02S

CITY           SKY/WX    TMP DP  RH WIND       PRES   REMARKS
*CAL POLY SLO    N/A     57  57 100 W3          N/A
*LOMPOC        CLOUDY    58  55  90 W6        30.03R
*PISMO BEACH     N/A     57  45  65 E2        30.00S
*SANTA YNEZ    FOG       54  54 100 CALM      30.03R VSB 1/2

$$

CAZ037-038-051-031300-
SAN LUIS OBISPO COUNTY INTERIOR AND CUYAMA VALLEY


CITY           SKY/WX    TMP DP  RH WIND       PRES   REMARKS
PASO ROBLES    CLEAR     56  51  84 NW5       30.04R

$$

CAZ032-033-061-031300-
SOUTHERN DESERTS


CITY           SKY/WX    TMP DP  RH WIND       PRES   REMARKS
BLYTHE         NOT AVBL
IMPERIAL       CLEAR     85  41  21 W8        29.78S
PALM SPRINGS   CLEAR     87  49  26 W3        29.85S
THERMAL        CLEAR     93  33  12 N8        29.78R

$$

ELSEWHERE ACROSS THE WESTERN UNITED STATES AND MEXICO


CITY           SKY/WX    TMP DP  RH WIND       PRES   REMARKS
DENVER, CO     MOCLDY    67  52  58 W6        30.18R
GRAND CANYON,  CLEAR     53  49  86 CALM      30.37R
HONOLULU, HI   LGT RAIN  76  66  71 E12       30.10S
KAHULUI, MAUI  LGT RAIN  72  68  87 NE13      30.10F
LAKE TAHOE, CA CLEAR     49  37  63 CALM      30.35S
LAS VEGAS, NV  MOCLDY    88  52  29 SW3       29.99R
MAMMOTH LAKES, NOT AVBL
MEXICO CITY, M MOCLDY    57  54  88 CALM      30.37S
PHOENIX, AZ    PTCLDY    90  63  40 E7        29.87R HX  91
PORTLAND, OR   PTCLDY    65  54  67 NW5       30.06S
RENO, NV       PTCLDY    67  37  33 SW5       30.22R
SALT LAKE CITY CLEAR     65  58  78 CALM      30.25R
SAN DIEGO, CA  CLEAR     67  60  78 CALM      29.98R
SAN FRANCISCO, MOCLDY    55  51  86 SW3       30.05R
SAN JOSE, CA   CLOUDY    59  54  83 NW5       30.04S
SEATTLE, WA    PTCLDY    62  49  62 NW3       30.08S
TIJUANA, MEX   CLEAR     64  61  88 CALM      29.99

$$

STATION/POSITION TIME  TEMP    WIND        PRES    VSBY  WAVE
                       AIR SEA DIR/SP/G                  HT/PER
                 (UTC) (F)     (DEG/KT/KT) (MB)    (MI)  (FT/S)
WEST SANTA BARBA 1140   57 56  310/ 21/ 27 1014.8R
EAST SANTA BARBA 1140   62 63  340/  6/  8 1014.5R
SANTA MONICA BAY 1140   64 68  260/  6/ 10 1014.4R
SAN CLEMENTE BAS 1140   67 70  300/ 14/ 16 1014.2R


USA.gov is the U.S. government's official web portal to all federal, state and local government web resources and services.